Location: Beuerbach
(48.1459°N, 10.9174°E)
Time: 03:57:12
(UTC+00:00)

H-2A R/B - Pass Details

Date: 23 May 2024
Orbit: 553 x 572 km, 98.1° (Epoch: 13 June)

Event Time Altitude Azimuth Distance (km) Brightness Sun altitude
Rises 00:36:34 0° 20° (NNE) 2,756 8.6 -18.7°
Reaches altitude 10° 00:38:50 10° 29° (NNE) 1,852 7.2 -18.6°
Maximum altitude 00:42:35 38° 98° (E) 866 4.4 -18.4°
Enters shadow 00:44:15 25° 147° (SSE) 1,128 4.6 -18.2°
